Regional Weather Roundup
Issued by NWS Albany, NY

Home | Current Version | Previous Version | Text Only | Print | Product List | Glossary On
Versions: 1 2 3 4 5 6 7 8 9 10 11 12 13 14 15 16 17 18 19 20 21 22 23 24 25 26 27 28 29 30 31 32 33 34 35 36 37 38 39 40 41 42 43 44 45 46 47 48 49 50
000
ASUS41 KALY 290810
RWRALY

NEW YORK STATE HOURLY WEATHER ROUNDUP
NATIONAL WEATHER SERVICE ALBANY NY
400 AM EDT FRI AUG 29 2014

NOTE: "FAIR" INDICATES FEW OR NO CLOUDS BELOW 12,000 FEET WITH NO
SIGNIFICANT WEATHER AND/OR NO OBSTRUCTIONS TO VISIBILITY.

NYZ032-033-038>043-046>054-057>066-NYZ062>081-290900-
EAST


CITY           SKY/WX    TMP DP  RH WIND       PRES   REMARKS
ALBANY         CLEAR     53  50  89 CALM      30.11R
GLENS FALLS    CLEAR     59  50  72 N9        30.10R
POUGHKEEPSIE   CLEAR     51  49  92 CALM      30.10R
NEWBURGH       CLEAR    N/A N/A N/A CALM      30.11S
MONTGOMERY     CLEAR     48  46  93 CALM      30.10F
WHITE PLAINS   CLEAR     57  49  74 N5        30.08S
ISLIP          CLEAR     63  52  67 N7        30.05S
NEW YORK CITY  CLEAR     65  51  60 NE9       30.08R
CENTRAL PARK   CLEAR     63  48  58 VRB3      30.11S
$$

NYZ005>009-017-018-044>046-055-056-290900-
CENTRAL


CITY           SKY/WX    TMP DP  RH WIND       PRES   REMARKS
FULTON         CLEAR     51  48  89 CALM      30.14S FOG
SYRACUSE       PTCLDY    55  52  89 CALM      30.14S
ROME           CLEAR     51  50  96 CALM      30.16R
ELMIRA         CLEAR     46  46 100 W3        30.16R
BINGHAMTON     CLEAR     53  48  83 NW3       30.14S
MONTICELLO     CLEAR     48  46  93 N6        30.14F
$$

NYZ026>034-041>043-290900-
NORTH


CITY           SKY/WX    TMP DP  RH WIND       PRES   REMARKS
WATERTOWN      CLEAR     48  43  82 SE3       30.14S
FORT DRUM      NOT AVBL
MASSENA        CLEAR     51  50  96 SW3       30.14R
SARANAC LAKE   CLEAR     49  48  97 CALM      30.12S
PLATTSBURGH    CLOUDY    56  52  86 CALM      30.10R
$$

NYZ001>004-010>016-019>021-290900-
WEST


CITY           SKY/WX    TMP DP  RH WIND       PRES   REMARKS
NIAGARA FALLS  MOCLDY    53  48  83 CALM      30.15S
BUFFALO        MOCLDY    53  48  83 SE3       30.15F
DUNKIRK        CLOUDY    61  54  77 CALM      30.15S
JAMESTOWN      MOCLDY    48  46  93 S3        30.17S
WELLSVILLE     PTCLDY    48  45  89 CALM      30.19S
ROCHESTER      PTCLDY    51  49  92 SW5       30.15S
PENN YAN       CLEAR     52  49  89 CALM      30.15F
$$

             KEY
       WCI = WIND CHILL INDEX
       VSB = VISIBILITY
       HX  = HEAT INDEX
$$


USA.gov is the U.S. government's official web portal to all federal, state and local government web resources and services.